Weather History for New River MCAS, NC

Change the Weather History Date:

Tuesday, December 11, 2012

  Actual Average Record
Temperature  
Mean Temperature 62 °F -  
Max Temperature 70 °F 57 °F 77 °F (2007)
Min Temperature 53 °F 37 °F 28 °F (2006)
Degree Days  
Heating Degree Days 3    
Growing Degree Days 12 (Base 50)    
Moisture  
Dew Point 59 °F    
Average Humidity 79    
Maximum Humidity 90    
Minimum Humidity 57    
Precipitation  
Precipitation 0.16 in - - ()
Sea Level Pressure  
Sea Level Pressure 29.94 in    
Wind  
Wind Speed 8 mph (West)    
Max Wind Speed 13 mph    
Max Gust Speed 16 mph    
Visibility 9 miles    
Events Rain    
Averages and records for this station are not official NWS values.
T = Trace of Precipitation, MM = Missing Value Source: NWS Daily Summary

Daily Weather History Graph

Daily Weather History Graph

Search for Another Location

Airport:

Trip Planner

Search our weather history database for the weather conditions in past years. The results will help you decide how hot, cold, wet, or windy it might be!

Date:

Astronomy

Dec. 11, 2012 Rise Set
Actual Time 7:07 AM EST 4:59 PM EST
Civil Twilight 6:39 AM EST 5:27 PM EST
Nautical Twilight 6:07 AM EST 5:58 PM EST
Astronomical Twilight 5:37 AM EST 6:29 PM EST
Moon 5:01 AM EST (12/11) 3:34 PM EST (12/11)
Length of Visible Light 10h 48m
Length of Day
9h 52m
Waning Crescent, 4% of the Moon is Illuminated
Dec 11
Waning Crescent
Dec 13
New
Dec 20
First Quarter
Dec 28
Full
Jan 4
Last Quarter

Hourly Weather History & Observations

Time (EST) Temp. Dew Point Humidity Pressure Visibility Wind Dir Wind Speed Gust Speed Precip Events Conditions
12:56 AM 68.0 °F 61.0 °F 78% 29.79 in 10.0 mi SSW 6.9 mph 16.1 mph N/A   Clear
1:30 AM 68.0 °F 62.6 °F 83% 29.79 in 10.0 mi SSW 9.2 mph - N/A   Partly Cloudy
1:56 AM 68.0 °F 64.0 °F 87% 29.81 in 10.0 mi SW 6.9 mph - N/A   Partly Cloudy
2:56 AM 69.1 °F 64.0 °F 84% 29.81 in 10.0 mi SW 8.1 mph - N/A   Clear
3:56 AM 68.0 °F 64.0 °F 87% 29.81 in 10.0 mi WSW 6.9 mph - N/A   Clear
4:56 AM 68.0 °F 64.9 °F 90% 29.81 in 10.0 mi SW 5.8 mph - N/A   Clear
5:56 AM 66.9 °F 64.0 °F 90% 29.82 in 9.0 mi SSW 4.6 mph - N/A   Clear
6:56 AM 66.9 °F 63.0 °F 87% 29.85 in 10.0 mi SW 5.8 mph - 0.01 in   Clear
7:11 AM - - N/A% - - North - - N/A   Unknown
7:56 AM 66.9 °F 63.0 °F 87% 29.88 in 7.0 mi WSW 4.6 mph - N/A   Mostly Cloudy
8:56 AM 68.0 °F 63.0 °F 84% 29.91 in 10.0 mi WSW 11.5 mph - N/A   Scattered Clouds
9:00 AM - - N/A% - - North - - N/A   Unknown
9:08 AM 69.8 °F 62.6 °F 78% 29.91 in 10.0 mi West 11.5 mph - N/A   Mostly Cloudy
9:32 AM 69.8 °F 60.8 °F 73% 29.92 in 10.0 mi West 9.2 mph - N/A   Mostly Cloudy
9:47 AM 69.8 °F 60.8 °F 73% 29.93 in 10.0 mi West 11.5 mph - N/A   Mostly Cloudy
9:56 AM 69.1 °F 61.0 °F 75% 29.93 in 10.0 mi West 11.5 mph - N/A   Mostly Cloudy
10:56 AM 69.1 °F 60.1 °F 73% 29.95 in 10.0 mi WNW 12.7 mph - N/A   Mostly Cloudy
11:03 AM 69.8 °F 59.0 °F 68% 29.94 in 10.0 mi West 10.4 mph - N/A   Overcast
11:56 AM 70.0 °F 57.0 °F 63% 29.95 in 10.0 mi WNW 12.7 mph - N/A   Mostly Cloudy
1:03 PM 69.8 °F 55.4 °F 60% 29.93 in 10.0 mi West 9.2 mph - N/A   Mostly Cloudy
1:56 PM 70.0 °F 54.0 °F 57% 29.94 in 10.0 mi West 8.1 mph - N/A   Mostly Cloudy
2:56 PM 69.1 °F 54.0 °F 58% 29.95 in 10.0 mi West 6.9 mph - N/A   Overcast
3:56 PM 66.9 °F 55.0 °F 66% 29.97 in 10.0 mi Calm Calm - N/A   Overcast
4:56 PM 66.0 °F 55.9 °F 70% 29.99 in 10.0 mi Calm Calm - 0.00 in   Overcast
5:56 PM 63.0 °F 57.9 °F 84% 30.03 in 5.0 mi Calm Calm - 0.01 in Rain Rain
6:56 PM 62.1 °F 59.0 °F 90% 30.04 in 5.0 mi NE 3.5 mph - 0.07 in Rain Light Rain
7:56 PM 62.1 °F 59.0 °F 90% 30.05 in 8.0 mi Calm Calm - 0.06 in   Overcast
8:56 PM 62.1 °F 59.0 °F 90% 30.05 in 7.0 mi East 4.6 mph - 0.00 in Rain Light Rain
9:11 PM 60.8 °F 57.2 °F 88% 30.06 in 7.0 mi NNE 12.7 mph - 0.00 in Rain Light Rain
9:52 PM 55.4 °F 51.8 °F 88% 30.07 in 10.0 mi ENE 12.7 mph - 0.00 in   Overcast
9:56 PM 55.9 °F 52.0 °F 87% 30.09 in 10.0 mi NE 11.5 mph - 0.01 in   Overcast
10:56 PM 54.0 °F 50.0 °F 86% 30.13 in 8.0 mi NNE 10.4 mph - N/A   Overcast
11:27 PM 53.6 °F 50.0 °F 88% 30.12 in 2.5 mi NE 9.2 mph - N/A   Overcast